NOAA 16 DEB, 42397

Orbit data source: Space-Track

NOAA 16 DEB, 42397 is space debris in SSO originally from a launch on Thu, 21 Sep 2000 UTC launched from the Air Force Western Test Range (AFWTR). Debris objects in space refer to the collection of defunct objects orbiting the Earth. Examples of debris include non-operational satellites, rocket bodies, and fragments generated from explosions, collisions, or faulty payload assembly.

Loading next visibility...
Identifier
42397, 2000-055SR
Orbit
SSO
Country
Flag of USUS
Related business
Manufacturer
Unknown
Mission
Spacecraft
Bus & Motor
Unknown
Mass
Unknown
Launch date (UTC)
2000-09-21 (25 years ago)
Launch vehicle
Unknown
Launch site
Air Force Western Test Range (AFWTR)
Object type
Payload
Rocket body
Debris
Shape & HBR
Unknown shape, 0.1 m
Radar Cross Section
Small (<0.1 m²)

Expand to show TLE details & history
Last TLE update: 3 days ago

TLE from 3 days ago
0 NOAA 16 DEB
1 42397U 00055SR  26036.00162455  .00013940  00000-0  40143-2 0  9996
2 42397  98.7300 129.5393 0029199 321.4270  38.4834 14.44585663514641
Epoch: 2026-02-05T00:02Z
TLE epoch observation values (Epoch: 2026-02-05T00:02:20.361Z)
Latitude
0.00005°
Longitude
-6.20566°
Altitude
730.078 km
Speed
7.499 km/s
True Right ascension
08h 38m 09s
True Declination
0° 00' 00"
Sunlit
Object was in full shadow at epoch
Visualization orbit readout
Latitude
Unknown
Longitude
Unknown
Altitude
Unknown
Speed
Unknown
Apparent Right ascension
Unknown
Apparent Declination
Unknown
Sunlit
N/A
Visualization observer readout
Local Sidereal Time
15:25:54
Azimuth
Unknown
Elevation
Unknown
Doppler factor
Unknown
Orbital elements
Apogee altitude
761.3 km
Perigee altitude
719.729 km
Semi-major axis
7,118.651 km
Eccentricity
0.00292
Inclination
98.73°
RAAN
129.5393°
Arg. of periapsis
321.427°
True anomaly
38.69221°
Mean anomaly
38.4834°
Eccentric anomaly
38.58775°
Mean motion
3.61365 °/min
Orbital period
99.62 mins
BSTAR
0.0040143
Loading maneuver chart data...
Computing Atmospheric mass density...
Loading historical data...
Loading historical data...
Loading historical data...
Loading historical data...
Loading historical data...
Loading historical data...
Loading historical data...

Documentation

Showing up to 5 results
|